Location: Congrier
(47.8099°N, 1.1170°W)
Time: 23:48:32
(UTC+00:00)

ATLAS 2AS CENTAUR R/B - Pass Details

Date: 28 January 2023
Orbit: 986 x 1226 km, 63.7° (Epoch: 31 January)

Event Time Altitude Azimuth Distance (km) Brightness Sun altitude
Rises 19:09:15 0° 319° (NW) 3,994 6.2 -21.9°
Reaches altitude 10° 19:12:02 10° 321° (NW) 2,996 5.5 -22.4°
Maximum altitude 19:19:08 74° 47° (NE) 1,110 2.6 -23.6°
Enters shadow 19:21:31 43° 121° (ESE) 1,441 3.0 -24.0°
